Flag for Norway Weather past 2 weeks in Trondheim, Norway

Now
45 °F

Passing clouds.


Feels Like: 43 °F
Forecast: 51 / 63 °F
Wind: 3 mph from Northeast

Location: Trondheim / Vaernes

Current Time: Sep 2, 2015 at 9:24:07 AM

Latest Report: Sep 2, 2015 at 8:50 AM


Visibility: N/A

Pressure: 29.98 "Hg

Humidity: 93%

Dew point: 43 °F

Location of TrondheimLocation

Historic Weather in Trondheim — Graph

°F

Trondheim temperature yesterday

Maximum temperature yesterday: 59 °F (at 2:50 PM)
Minimum temperature yesterday: 46 °F (at 10:50 PM)
Average temperature yesterday: 53 °F

Past Weeks' High & Low Weather Summary

 TemperatureHumidityPressure
High82 °F (Aug 19, 3:50 PM)100% (Aug 27, 10:50 PM)30.27 "Hg (Aug 27, 10:50 PM)
Low39 °F (Sep 2, 5:20 AM)21% (Aug 18, 2:50 PM)29.39 "Hg (Aug 27, 9:20 PM)
Average64 °F62%29.97 "Hg
* Reported Aug 18 7:20 AM — Sep 2 7:50 AM, Trondheim, Weather by CustomWeather, © 2015

Note: Actual official high and low records may vary slightly from our data, if they occured in-between our weather recording intervals... More about our weather records

Advertising

Trondheim weather history for previous 24 hours

 ConditionsComfort  
Time TempWeatherWind HumidityBarometerVisibility
7:50 AM
Wed, Sep 2
43 °FSunny.6 mph93%29.98 "Hg10 mi
7:20 AM43 °FPassing clouds.6 mph93%29.98 "HgN/A
6:50 AM41 °FClear.7 mph100%29.98 "Hg10 mi
6:20 AM41 °FClear.6 mph93%29.98 "Hg10 mi
5:50 AM41 °FClear.6 mph93%29.98 "Hg10 mi
5:20 AM39 °FClear.6 mph100%29.98 "Hg10 mi
3:50 AM41 °FClear.5 mph100%30.01 "Hg10 mi
2:50 AM43 °FClear.7 mph93%30.01 "Hg10 mi
1:50 AM43 °FClear.7 mph93%30.04 "Hg10 mi
1:20 AM43 °FPassing clouds.7 mph93%30.04 "HgN/A
12:50 AM43 °FClear.10 mph93%30.04 "Hg10 mi
11:20 PM
Tue, Sep 1
46 °FClear.5 mph87%30.04 "Hg10 mi
10:50 PM46 °FClear.7 mph87%30.04 "Hg10 mi
10:20 PM48 °FClear.6 mph87%30.04 "Hg10 mi
9:50 PM50 °FClear.5 mph76%30.04 "Hg10 mi
9:20 PM52 °FPassing clouds.5 mph72%30.04 "HgN/A
8:50 PM52 °FSunny.5 mph72%30.04 "Hg10 mi
8:20 PM54 °FPassing clouds.3 mph72%30.04 "HgN/A
7:50 PM54 °FPassing clouds.6 mph72%30.04 "HgN/A
7:20 PM55 °FPassing clouds.6 mph67%30.04 "HgN/A
6:50 PM55 °FScattered clouds.7 mph67%30.04 "HgN/A
6:20 PM57 °FScattered clouds.3 mph63%30.04 "HgN/A
5:50 PM57 °FScattered clouds.No wind63%30.04 "HgN/A
5:20 PM57 °FScattered clouds.5 mph63%30.04 "HgN/A
4:50 PM57 °FPartly sunny.8 mph63%30.04 "HgN/A
4:20 PM57 °FPartly sunny.6 mph63%30.07 "HgN/A
3:50 PM57 °FPartly sunny.7 mph63%30.04 "HgN/A
3:20 PM59 °FPartly sunny.8 mph63%30.04 "HgN/A
2:50 PM59 °FScattered clouds.8 mph59%30.07 "HgN/A
2:20 PM57 °FBroken clouds.9 mph63%30.07 "HgN/A
1:50 PM57 °FScattered clouds.7 mph67%30.07 "HgN/A
1:20 PM57 °FPartly sunny.7 mph63%30.07 "HgN/A
12:50 PM55 °FPartly sunny.7 mph72%30.07 "HgN/A
12:20 PM55 °FBroken clouds.6 mph72%30.07 "HgN/A
11:50 AM55 °FBroken clouds.3 mph72%30.07 "HgN/A
11:20 AM55 °FBroken clouds.5 mph72%30.07 "HgN/A
10:50 AM55 °FBroken clouds.3 mph72%30.07 "HgN/A
10:20 AM54 °FBroken clouds.3 mph77%30.07 "HgN/A
9:50 AM55 °FBroken clouds.3 mph77%30.07 "HgN/A
9:20 AM54 °FBroken clouds.5 mph82%30.09 "HgN/A
Weather by CustomWeather, © 2015

See weather overviewHow to use our weather pages